Tracking 33485 objects as of 15-Mar-2026
HD Live streaming from Space Station
objects crossing your sky now

STARLINK-35408

Track STARLINK-35408 now!
10-day predictions
STARLINK-35408 is classified as:


NORAD ID: 65859
Int'l Code: 2025-223F
Perigee: 481.6 km
Apogee: 482.9 km
Inclination: 53.2 °
Period: 94.1 minutes
Semi major axis: 6853 km
RCS: Unknown
Launch date: October 3, 2025
Source: United States (US)
Launch site: AIR FORCE WESTERN TEST RANGE (AFWTR)
Your satellite tracking list
Your tracking list is empty




NASA's NSSDC Master Catalog

Two Line Element Set (TLE):
1 65859U 25223F   26073.86759755  .00046136  00000-0  15591-2 0  9990
2 65859  53.1593 270.4656 0000947  99.7682 260.3426 15.30222379 24993
Source of the keplerian elements: AFSPC